Time,TemperatureF,DewpointF,PressureIn,WindDirection,WindDirectionDegrees,WindSpeedMPH,WindSpeedGustMPH,Humidity,HourlyPrecipIn,Conditions,Clouds,dailyrainin,SoftwareType,DateUTC
2013-02-11 00:01:00,39.1,30.1,30.24,North,360,6.0,9.0,70,0.00,,,0.00,Wunderground v.1.15,2013-02-11 05:01:00,
2013-02-11 00:03:00,39.1,30.1,30.23,SE,137,5.0,9.0,70,0.00,,,0.00,Wunderground v.1.15,2013-02-11 05:03:00,
2013-02-11 00:07:00,39.2,30.6,30.23,SE,144,6.0,9.0,71,0.00,,,0.00,Wunderground v.1.15,2013-02-11 05:07:00,
2013-02-11 00:09:00,39.3,30.7,30.23,SE,140,5.0,5.0,71,0.00,,,0.00,Wunderground v.1.15,2013-02-11 05:09:00,
2013-02-11 00:11:00,39.3,30.7,30.23,North,360,4.0,9.0,71,0.00,,,0.00,Wunderground v.1.15,2013-02-11 05:11:00,
2013-02-11 00:13:00,39.3,30.7,30.23,SE,142,5.0,9.0,71,0.00,,,0.00,Wunderground v.1.15,2013-02-11 05:13:00,
2013-02-11 00:15:00,39.3,30.7,30.23,SE,132,5.0,9.0,71,0.00,,,0.00,Wunderground v.1.15,2013-02-11 05:15:00,
2013-02-11 00:21:00,39.4,30.8,30.23,SE,135,5.0,5.0,71,0.00,,,0.00,Wunderground v.1.15,2013-02-11 05:21:00,
2013-02-11 00:25:00,39.6,31.0,30.23,SE,137,4.0,5.0,71,0.00,,,0.00,Wunderground v.1.15,2013-02-11 05:25:00,
2013-02-11 00:27:00,39.6,31.0,30.23,SE,137,3.0,5.0,71,0.00,,,0.00,Wunderground v.1.15,2013-02-11 05:27:00,
2013-02-11 00:31:00,39.7,31.1,30.23,SE,137,3.0,3.0,71,0.00,,,0.00,Wunderground v.1.15,2013-02-11 05:31:00,
2013-02-11 00:33:00,39.8,31.2,30.23,SE,138,3.0,3.0,71,0.00,,,0.00,Wunderground v.1.15,2013-02-11 05:33:00,
2013-02-11 00:37:00,39.8,31.2,30.24,SE,138,3.0,3.0,71,0.00,,,0.00,Wunderground v.1.15,2013-02-11 05:37:00,
2013-02-11 00:41:00,39.9,31.3,30.23,SE,140,2.0,3.0,71,0.00,,,0.00,Wunderground v.1.15,2013-02-11 05:41:00,
2013-02-11 00:43:00,39.9,31.3,30.23,SE,144,2.0,4.0,71,0.00,,,0.00,Wunderground v.1.15,2013-02-11 05:43:00,
2013-02-11 00:45:00,40.0,31.7,30.23,SE,146,2.0,4.0,72,0.00,,,0.00,Wunderground v.1.15,2013-02-11 05:45:00,
2013-02-11 00:49:00,40.1,31.8,30.23,North,360,2.0,3.0,72,0.00,,,0.00,Wunderground v.1.15,2013-02-11 05:49:00,
2013-02-11 00:51:00,40.1,31.8,30.23,North,360,2.0,3.0,72,0.00,,,0.00,Wunderground v.1.15,2013-02-11 05:51:00,
2013-02-11 00:55:00,40.2,31.9,30.23,North,360,2.0,3.0,72,0.00,,,0.00,Wunderground v.1.15,2013-02-11 05:55:00,
2013-02-11 00:59:00,40.2,32.2,30.23,North,360,2.0,2.0,73,0.00,,,0.00,Wunderground v.1.15,2013-02-11 05:59:00,
2013-02-11 01:03:00,40.4,32.4,30.23,North,360,2.0,4.0,73,0.00,,,0.00,Wunderground v.1.15,2013-02-11 06:03:00,
2013-02-11 01:07:00,40.4,32.4,30.23,SSE,150,2.0,4.0,73,0.00,,,0.00,Wunderground v.1.15,2013-02-11 06:07:00,
2013-02-11 01:13:00,40.4,32.8,30.23,North,360,4.0,11.0,74,0.00,,,0.00,Wunderground v.1.15,2013-02-11 06:13:00,
2013-02-11 01:15:00,40.4,32.8,30.22,North,360,5.0,11.0,74,0.00,,,0.00,Wunderground v.1.15,2013-02-11 06:15:00,
2013-02-11 01:17:00,40.3,33.0,30.22,North,360,5.0,11.0,75,0.00,,,0.00,Wunderground v.1.15,2013-02-11 06:17:00,
2013-02-11 01:23:00,40.2,33.2,30.21,North,360,5.0,6.0,76,0.00,,,0.00,Wunderground v.1.15,2013-02-11 06:23:00,
2013-02-11 01:25:00,40.2,33.2,30.21,North,360,4.0,6.0,76,0.00,,,0.01,Wunderground v.1.15,2013-02-11 06:25:00,
2013-02-11 01:29:00,40.3,33.3,30.21,North,360,3.0,3.0,76,0.00,,,0.01,Wunderground v.1.15,2013-02-11 06:29:00,
2013-02-11 01:31:00,40.3,33.7,30.21,North,360,3.0,3.0,77,0.00,,,0.01,Wunderground v.1.15,2013-02-11 06:31:00,
2013-02-11 01:35:00,40.2,33.6,30.21,North,360,2.0,3.0,77,0.00,,,0.01,Wunderground v.1.15,2013-02-11 06:35:00,
2013-02-11 01:37:00,40.2,33.6,30.21,North,360,2.0,3.0,77,0.00,,,0.01,Wunderground v.1.15,2013-02-11 06:37:00,
2013-02-11 01:39:00,40.1,33.5,30.21,North,360,3.0,3.0,77,0.00,,,0.01,Wunderground v.1.15,2013-02-11 06:39:00,
2013-02-11 01:43:00,40.0,33.7,30.21,North,360,3.0,5.0,78,0.00,,,0.01,Wunderground v.1.15,2013-02-11 06:43:00,
2013-02-11 01:45:00,39.9,33.6,30.21,North,360,3.0,5.0,78,0.00,,,0.01,Wunderground v.1.15,2013-02-11 06:45:00,
2013-02-11 01:47:00,39.9,33.9,30.21,North,360,3.0,5.0,79,0.00,,,0.01,Wunderground v.1.15,2013-02-11 06:47:00,
2013-02-11 01:51:00,39.7,33.7,30.20,North,360,3.0,3.0,79,0.00,,,0.01,Wunderground v.1.15,2013-02-11 06:51:00,
2013-02-11 01:53:00,39.8,34.1,30.20,North,360,3.0,3.0,80,0.00,,,0.02,Wunderground v.1.15,2013-02-11 06:53:00,
2013-02-11 01:55:00,39.7,34.0,30.20,North,360,3.0,4.0,80,0.00,,,0.02,Wunderground v.1.15,2013-02-11 06:55:00,
2013-02-11 01:57:00,39.8,34.1,30.19,North,360,3.0,4.0,80,0.00,,,0.02,Wunderground v.1.15,2013-02-11 06:57:00,
2013-02-11 01:59:00,39.8,34.4,30.19,North,360,3.0,3.0,81,0.00,,,0.02,Wunderground v.1.15,2013-02-11 06:59:00,
2013-02-11 02:03:00,39.6,34.2,30.19,North,360,3.0,3.0,81,0.00,,,0.02,Wunderground v.1.15,2013-02-11 07:03:00,
2013-02-11 02:05:00,39.5,34.2,30.19,North,360,3.0,3.0,81,0.00,,,0.02,Wunderground v.1.15,2013-02-11 07:05:00,
2013-02-11 02:07:00,39.3,34.3,30.20,North,360,3.0,4.0,82,0.00,,,0.02,Wunderground v.1.15,2013-02-11 07:07:00,
2013-02-11 02:09:00,39.3,34.3,30.20,North,360,4.0,4.0,82,0.00,,,0.02,Wunderground v.1.15,2013-02-11 07:09:00,
2013-02-11 02:11:00,39.1,34.1,30.19,North,360,3.0,5.0,82,0.00,,,0.02,Wunderground v.1.15,2013-02-11 07:11:00,
2013-02-11 02:15:00,39.0,34.3,30.18,North,360,3.0,5.0,83,0.00,,,0.02,Wunderground v.1.15,2013-02-11 07:15:00,
2013-02-11 02:17:00,38.9,34.5,30.18,North,360,4.0,5.0,84,0.00,,,0.02,Wunderground v.1.15,2013-02-11 07:17:00,
2013-02-11 02:19:00,38.9,34.5,30.18,North,360,4.0,6.0,84,0.00,,,0.03,Wunderground v.1.15,2013-02-11 07:19:00,
2013-02-11 02:21:00,38.8,34.4,30.18,North,360,4.0,6.0,84,0.00,,,0.03,Wunderground v.1.15,2013-02-11 07:21:00,
2013-02-11 02:23:00,38.7,34.6,30.18,North,360,5.0,6.0,85,0.00,,,0.03,Wunderground v.1.15,2013-02-11 07:23:00,
2013-02-11 02:25:00,38.7,34.6,30.18,North,360,5.0,6.0,85,0.00,,,0.03,Wunderground v.1.15,2013-02-11 07:25:00,
2013-02-11 02:31:00,38.6,34.8,30.18,North,360,4.0,4.0,86,0.00,,,0.03,Wunderground v.1.15,2013-02-11 07:31:00,
2013-02-11 02:35:00,38.6,34.8,30.18,North,360,3.0,5.0,86,0.00,,,0.03,Wunderground v.1.15,2013-02-11 07:35:00,
2013-02-11 02:39:00,38.5,35.0,30.18,North,360,3.0,4.0,87,0.00,,,0.03,Wunderground v.1.15,2013-02-11 07:39:00,
2013-02-11 02:43:00,38.6,35.1,30.18,North,360,3.0,6.0,87,0.00,,,0.03,Wunderground v.1.15,2013-02-11 07:43:00,
2013-02-11 02:49:00,38.6,35.4,30.18,North,360,3.0,3.0,88,0.00,,,0.04,Wunderground v.1.15,2013-02-11 07:49:00,
2013-02-11 02:53:00,38.6,35.4,30.17,North,360,3.0,3.0,88,0.00,,,0.04,Wunderground v.1.15,2013-02-11 07:53:00,
2013-02-11 02:55:00,38.6,35.4,30.17,North,360,3.0,4.0,88,0.00,,,0.04,Wunderground v.1.15,2013-02-11 07:55:00,
2013-02-11 03:01:00,38.4,35.2,30.16,North,360,4.0,4.0,88,0.04,,,0.05,Wunderground v.1.15,2013-02-11 08:01:00,
2013-02-11 03:03:00,38.4,35.4,30.15,North,360,4.0,5.0,89,0.04,,,0.05,Wunderground v.1.15,2013-02-11 08:03:00,
2013-02-11 03:05:00,38.4,35.4,30.15,North,360,4.0,5.0,89,0.04,,,0.05,Wunderground v.1.15,2013-02-11 08:05:00,
2013-02-11 03:09:00,38.3,35.3,30.14,North,360,4.0,4.0,89,0.04,,,0.05,Wunderground v.1.15,2013-02-11 08:09:00,
2013-02-11 03:11:00,38.3,35.3,30.14,North,360,4.0,6.0,89,0.04,,,0.05,Wunderground v.1.15,2013-02-11 08:11:00,
2013-02-11 03:13:00,38.3,35.6,30.14,SE,136,4.0,6.0,90,0.04,,,0.05,Wunderground v.1.15,2013-02-11 08:13:00,
2013-02-11 03:17:00,38.3,35.6,30.14,North,360,3.0,6.0,90,0.05,,,0.06,Wunderground v.1.15,2013-02-11 08:17:00,
2013-02-11 03:19:00,38.4,35.7,30.14,North,360,3.0,3.0,90,0.05,,,0.06,Wunderground v.1.15,2013-02-11 08:19:00,
2013-02-11 03:23:00,38.3,35.6,30.13,SE,136,3.0,5.0,90,0.05,,,0.06,Wunderground v.1.15,2013-02-11 08:23:00,
2013-02-11 03:25:00,38.4,35.7,30.13,SE,136,3.0,6.0,90,0.05,,,0.06,Wunderground v.1.15,2013-02-11 08:25:00,
2013-02-11 03:29:00,38.6,35.9,30.13,SE,136,3.0,4.0,90,0.04,,,0.06,Wunderground v.1.15,2013-02-11 08:29:00,
2013-02-11 03:31:00,38.6,35.9,30.13,SE,136,3.0,4.0,90,0.04,,,0.07,Wunderground v.1.15,2013-02-11 08:31:00,
2013-02-11 03:37:00,38.7,36.3,30.13,North,360,3.0,4.0,91,0.04,,,0.07,Wunderground v.1.15,2013-02-11 08:37:00,
2013-02-11 03:39:00,38.7,36.3,30.13,North,360,2.0,2.0,91,0.04,,,0.07,Wunderground v.1.15,2013-02-11 08:39:00,
2013-02-11 03:41:00,38.7,36.3,30.13,North,360,2.0,2.0,91,0.04,,,0.07,Wunderground v.1.15,2013-02-11 08:41:00,
2013-02-11 03:43:00,38.7,36.3,30.13,North,360,2.0,2.0,91,0.04,,,0.07,Wunderground v.1.15,2013-02-11 08:43:00,
2013-02-11 03:45:00,38.7,36.3,30.13,North,360,2.0,4.0,91,0.04,,,0.07,Wunderground v.1.15,2013-02-11 08:45:00,
2013-02-11 03:49:00,38.7,36.3,30.13,North,360,2.0,4.0,91,0.04,,,0.08,Wunderground v.1.15,2013-02-11 08:49:00,
2013-02-11 03:51:00,38.7,36.3,30.13,North,360,3.0,5.0,91,0.04,,,0.08,Wunderground v.1.15,2013-02-11 08:51:00,
2013-02-11 03:53:00,38.7,36.3,30.12,North,360,4.0,5.0,91,0.04,,,0.08,Wunderground v.1.15,2013-02-11 08:53:00,
2013-02-11 03:55:00,38.6,36.2,30.12,North,360,5.0,11.0,91,0.04,,,0.08,Wunderground v.1.15,2013-02-11 08:55:00,
2013-02-11 03:57:00,38.6,36.2,30.12,North,360,6.0,11.0,91,0.07,,,0.09,Wunderground v.1.15,2013-02-11 08:57:00,
2013-02-11 04:01:00,38.5,36.1,30.12,North,360,6.0,6.0,91,0.07,,,0.09,Wunderground v.1.15,2013-02-11 09:01:00,
2013-02-11 04:03:00,38.4,36.0,30.12,North,360,7.0,8.0,91,0.07,,,0.09,Wunderground v.1.15,2013-02-11 09:03:00,
2013-02-11 04:09:00,38.3,35.9,30.12,North,360,5.0,5.0,91,0.05,,,0.10,Wunderground v.1.15,2013-02-11 09:09:00,
2013-02-11 04:11:00,38.3,35.9,30.11,North,360,5.0,5.0,91,0.05,,,0.10,Wunderground v.1.15,2013-02-11 09:11:00,
2013-02-11 04:13:00,38.3,35.9,30.11,North,360,4.0,5.0,91,0.05,,,0.10,Wunderground v.1.15,2013-02-11 09:13:00,
2013-02-11 04:15:00,38.3,35.9,30.11,North,360,4.0,5.0,91,0.05,,,0.10,Wunderground v.1.15,2013-02-11 09:15:00,
2013-02-11 04:19:00,38.4,36.3,30.11,North,360,4.0,5.0,92,0.06,,,0.11,Wunderground v.1.15,2013-02-11 09:19:00,
2013-02-11 04:21:00,38.4,36.3,30.11,North,360,4.0,5.0,92,0.16,,,0.12,Wunderground v.1.15,2013-02-11 09:21:00,
2013-02-11 04:23:00,38.4,36.3,30.10,North,360,3.0,5.0,92,0.16,,,0.12,Wunderground v.1.15,2013-02-11 09:23:00,
2013-02-11 04:25:00,38.4,36.3,30.10,North,360,3.0,5.0,92,0.13,,,0.13,Wunderground v.1.15,2013-02-11 09:25:00,
2013-02-11 04:27:00,38.4,36.3,30.10,North,360,4.0,5.0,92,0.13,,,0.13,Wunderground v.1.15,2013-02-11 09:27:00,
2013-02-11 04:33:00,38.4,36.3,30.10,North,360,3.0,3.0,92,0.07,,,0.13,Wunderground v.1.15,2013-02-11 09:33:00,
2013-02-11 04:35:00,38.4,36.3,30.09,North,360,3.0,3.0,92,0.06,,,0.14,Wunderground v.1.15,2013-02-11 09:35:00,
2013-02-11 04:37:00,38.4,36.3,30.09,North,360,3.0,4.0,92,0.06,,,0.14,Wunderground v.1.15,2013-02-11 09:37:00,
2013-02-11 04:41:00,38.3,36.2,30.09,North,360,3.0,6.0,92,0.06,,,0.14,Wunderground v.1.15,2013-02-11 09:41:00,
2013-02-11 04:45:00,38.2,36.1,30.09,North,360,5.0,7.0,92,0.05,,,0.14,Wunderground v.1.15,2013-02-11 09:45:00,
2013-02-11 04:49:00,38.3,36.2,30.09,North,360,4.0,4.0,92,0.04,,,0.14,Wunderground v.1.15,2013-02-11 09:49:00,
2013-02-11 04:51:00,38.4,36.3,30.09,North,360,4.0,5.0,92,0.04,,,0.14,Wunderground v.1.15,2013-02-11 09:51:00,
2013-02-11 04:53:00,38.4,36.3,30.09,North,360,4.0,5.0,92,0.00,,,0.14,Wunderground v.1.15,2013-02-11 09:53:00,
2013-02-11 04:55:00,38.5,36.4,30.10,North,360,3.0,5.0,92,0.00,,,0.14,Wunderground v.1.15,2013-02-11 09:55:00,
2013-02-11 05:01:00,38.4,36.3,30.09,North,360,3.0,3.0,92,0.00,,,0.15,Wunderground v.1.15,2013-02-11 10:01:00,
2013-02-11 05:03:00,38.4,36.3,30.09,North,360,2.0,3.0,92,0.11,,,0.16,Wunderground v.1.15,2013-02-11 10:03:00,
2013-02-11 05:05:00,38.4,36.3,30.09,North,360,2.0,3.0,92,0.11,,,0.16,Wunderground v.1.15,2013-02-11 10:05:00,
2013-02-11 05:11:00,38.4,36.3,30.09,North,360,2.0,2.0,92,0.07,,,0.16,Wunderground v.1.15,2013-02-11 10:11:00,
2013-02-11 05:13:00,38.4,36.3,30.09,North,360,2.0,4.0,92,0.05,,,0.16,Wunderground v.1.15,2013-02-11 10:13:00,
2013-02-11 05:15:00,38.4,36.3,30.09,North,360,2.0,4.0,92,0.05,,,0.16,Wunderground v.1.15,2013-02-11 10:15:00,
2013-02-11 05:19:00,38.5,36.4,30.09,North,360,2.0,2.0,92,0.00,,,0.17,Wunderground v.1.15,2013-02-11 10:19:00,
2013-02-11 05:25:00,38.5,36.4,30.08,North,360,2.0,5.0,92,0.00,,,0.17,Wunderground v.1.15,2013-02-11 10:25:00,
2013-02-11 05:29:00,38.5,36.4,30.08,North,360,3.0,3.0,92,0.00,,,0.17,Wunderground v.1.15,2013-02-11 10:29:00,
2013-02-11 05:31:00,38.5,36.7,30.08,North,360,3.0,3.0,93,0.05,,,0.18,Wunderground v.1.15,2013-02-11 10:31:00,
2013-02-11 05:35:00,38.6,36.8,30.07,North,360,2.0,3.0,93,0.05,,,0.18,Wunderground v.1.15,2013-02-11 10:35:00,
2013-02-11 05:39:00,38.6,36.8,30.07,North,360,2.0,3.0,93,0.05,,,0.18,Wunderground v.1.15,2013-02-11 10:39:00,
2013-02-11 05:41:00,38.5,36.7,30.07,North,360,2.0,6.0,93,0.05,,,0.18,Wunderground v.1.15,2013-02-11 10:41:00,
2013-02-11 05:43:00,38.5,36.7,30.07,North,360,3.0,6.0,93,0.05,,,0.18,Wunderground v.1.15,2013-02-11 10:43:00,
2013-02-11 05:49:00,38.5,36.7,30.07,North,360,4.0,9.0,93,0.05,,,0.19,Wunderground v.1.15,2013-02-11 10:49:00,
2013-02-11 05:51:00,38.5,36.4,30.06,North,360,5.0,9.0,92,0.05,,,0.19,Wunderground v.1.15,2013-02-11 10:51:00,
2013-02-11 05:53:00,38.4,36.6,30.06,North,360,6.0,13.0,93,0.05,,,0.19,Wunderground v.1.15,2013-02-11 10:53:00,
2013-02-11 05:55:00,38.5,36.7,30.07,North,360,6.0,13.0,93,0.05,,,0.19,Wunderground v.1.15,2013-02-11 10:55:00,
2013-02-11 05:59:00,38.5,36.7,30.07,North,360,6.0,6.0,93,0.04,,,0.19,Wunderground v.1.15,2013-02-11 10:59:00,
2013-02-11 06:01:00,38.5,36.7,30.07,North,360,5.0,6.0,93,0.00,,,0.19,Wunderground v.1.15,2013-02-11 11:01:00,
2013-02-11 06:05:00,38.5,36.7,30.06,North,360,5.0,6.0,93,0.00,,,0.19,Wunderground v.1.15,2013-02-11 11:05:00,
2013-02-11 06:07:00,38.5,36.7,30.05,North,360,5.0,6.0,93,0.00,,,0.19,Wunderground v.1.15,2013-02-11 11:07:00,
2013-02-11 06:11:00,38.5,36.7,30.06,North,360,6.0,6.0,93,0.00,,,0.19,Wunderground v.1.15,2013-02-11 11:11:00,
2013-02-11 06:13:00,38.5,36.7,30.06,North,360,6.0,8.0,93,0.00,,,0.20,Wunderground v.1.15,2013-02-11 11:13:00,
2013-02-11 06:17:00,38.5,36.7,30.06,North,360,6.0,8.0,93,0.14,,,0.21,Wunderground v.1.15,2013-02-11 11:17:00,
2013-02-11 06:21:00,38.5,36.7,30.06,North,360,6.0,10.0,93,0.11,,,0.21,Wunderground v.1.15,2013-02-11 11:21:00,
2013-02-11 06:25:00,38.4,36.6,30.05,North,360,6.0,10.0,93,0.10,,,0.22,Wunderground v.1.15,2013-02-11 11:25:00,
2013-02-11 06:27:00,38.5,36.7,30.05,North,360,6.0,10.0,93,0.10,,,0.22,Wunderground v.1.15,2013-02-11 11:27:00,
2013-02-11 06:33:00,38.5,36.7,30.05,North,360,5.0,7.0,93,0.08,,,0.23,Wunderground v.1.15,2013-02-11 11:33:00,
2013-02-11 06:35:00,38.4,36.6,30.05,North,360,5.0,7.0,93,0.08,,,0.23,Wunderground v.1.15,2013-02-11 11:35:00,
2013-02-11 06:41:00,38.6,36.8,30.05,North,360,5.0,5.0,93,0.05,,,0.23,Wunderground v.1.15,2013-02-11 11:41:00,
2013-02-11 06:45:00,38.6,36.8,30.05,North,360,4.0,5.0,93,0.04,,,0.23,Wunderground v.1.15,2013-02-11 11:45:00,
2013-02-11 06:47:00,38.7,36.9,30.05,North,360,4.0,6.0,93,0.00,,,0.23,Wunderground v.1.15,2013-02-11 11:47:00,
2013-02-11 06:49:00,38.7,36.9,30.05,North,360,4.0,6.0,93,0.00,,,0.23,Wunderground v.1.15,2013-02-11 11:49:00,
2013-02-11 06:51:00,38.8,36.9,30.05,North,360,4.0,6.0,93,0.00,,,0.23,Wunderground v.1.15,2013-02-11 11:51:00,
2013-02-11 06:57:00,38.8,36.9,30.05,North,360,4.0,6.0,93,0.00,,,0.23,Wunderground v.1.15,2013-02-11 11:57:00,
2013-02-11 06:59:00,38.8,36.9,30.05,North,360,4.0,4.0,93,0.00,,,0.23,Wunderground v.1.15,2013-02-11 11:59:00,
2013-02-11 07:05:00,38.9,37.0,30.04,North,360,3.0,4.0,93,0.00,,,0.23,Wunderground v.1.15,2013-02-11 12:05:00,
2013-02-11 07:07:00,38.9,37.0,30.03,North,360,3.0,5.0,93,0.00,,,0.23,Wunderground v.1.15,2013-02-11 12:07:00,
2013-02-11 07:11:00,38.9,37.0,30.05,North,360,4.0,5.0,93,0.00,,,0.23,Wunderground v.1.15,2013-02-11 12:11:00,
2013-02-11 07:13:00,38.9,37.0,30.06,North,360,4.0,5.0,93,0.00,,,0.23,Wunderground v.1.15,2013-02-11 12:13:00,
2013-02-11 07:15:00,39.0,37.1,30.06,North,360,4.0,5.0,93,0.00,,,0.23,Wunderground v.1.15,2013-02-11 12:15:00,
2013-02-11 07:19:00,39.1,37.2,30.04,North,360,4.0,6.0,93,0.00,,,0.23,Wunderground v.1.15,2013-02-11 12:19:00,
2013-02-11 07:21:00,39.1,37.2,30.03,North,360,4.0,7.0,93,0.00,,,0.23,Wunderground v.1.15,2013-02-11 12:21:00,
2013-02-11 07:23:00,39.1,37.2,30.04,North,360,5.0,7.0,93,0.00,,,0.23,Wunderground v.1.15,2013-02-11 12:23:00,
2013-02-11 07:29:00,39.2,37.3,30.04,North,360,6.0,6.0,93,0.00,,,0.23,Wunderground v.1.15,2013-02-11 12:29:00,
2013-02-11 07:31:00,39.2,37.3,30.04,North,360,5.0,6.0,93,0.00,,,0.23,Wunderground v.1.15,2013-02-11 12:31:00,
2013-02-11 07:35:00,39.2,37.3,30.03,North,360,5.0,9.0,93,0.00,,,0.23,Wunderground v.1.15,2013-02-11 12:35:00,
2013-02-11 07:37:00,39.3,37.4,30.03,North,360,5.0,9.0,93,0.00,,,0.23,Wunderground v.1.15,2013-02-11 12:37:00,
2013-02-11 07:39:00,39.3,37.4,30.02,North,360,5.0,6.0,93,0.00,,,0.23,Wunderground v.1.15,2013-02-11 12:39:00,
2013-02-11 07:41:00,39.3,37.4,30.02,North,360,5.0,6.0,93,0.00,,,0.23,Wunderground v.1.15,2013-02-11 12:41:00,
2013-02-11 07:45:00,39.2,37.3,30.02,North,360,5.0,11.0,93,0.00,,,0.23,Wunderground v.1.15,2013-02-11 12:45:00,
2013-02-11 07:47:00,39.1,37.2,30.02,North,360,6.0,11.0,93,0.00,,,0.23,Wunderground v.1.15,2013-02-11 12:47:00,
2013-02-11 07:51:00,39.2,37.3,30.02,North,360,7.0,9.0,93,0.00,,,0.23,Wunderground v.1.15,2013-02-11 12:51:00,
2013-02-11 07:53:00,39.3,37.4,30.02,North,360,8.0,9.0,93,0.00,,,0.23,Wunderground v.1.15,2013-02-11 12:53:00,
2013-02-11 07:57:00,39.3,37.4,30.02,North,360,7.0,11.0,93,0.00,,,0.23,Wunderground v.1.15,2013-02-11 12:57:00,
2013-02-11 07:59:00,39.4,37.5,30.02,North,360,7.0,10.0,93,0.00,,,0.23,Wunderground v.1.15,2013-02-11 12:59:00,
2013-02-11 08:01:00,39.4,37.5,30.02,North,360,7.0,10.0,93,0.00,,,0.23,Wunderground v.1.15,2013-02-11 13:01:00,
2013-02-11 08:05:00,39.4,37.5,30.02,North,360,7.0,10.0,93,0.00,,,0.23,Wunderground v.1.15,2013-02-11 13:05:00,
2013-02-11 08:09:00,39.5,37.6,30.01,North,360,6.0,6.0,93,0.00,,,0.23,Wunderground v.1.15,2013-02-11 13:09:00,
2013-02-11 08:11:00,39.5,37.6,30.01,North,360,5.0,6.0,93,0.00,,,0.23,Wunderground v.1.15,2013-02-11 13:11:00,
2013-02-11 08:17:00,39.5,37.6,30.01,North,360,6.0,12.0,93,0.00,,,0.23,Wunderground v.1.15,2013-02-11 13:17:00,
2013-02-11 08:21:00,39.5,37.6,30.01,North,360,7.0,7.0,93,0.00,,,0.23,Wunderground v.1.15,2013-02-11 13:21:00,
2013-02-11 08:23:00,39.6,37.7,30.01,North,360,7.0,7.0,93,0.00,,,0.23,Wunderground v.1.15,2013-02-11 13:23:00,
2013-02-11 08:25:00,39.6,38.0,30.01,North,360,6.0,9.0,94,0.00,,,0.23,Wunderground v.1.15,2013-02-11 13:25:00,
2013-02-11 08:27:00,39.7,37.8,30.01,North,360,6.0,9.0,93,0.00,,,0.23,Wunderground v.1.15,2013-02-11 13:27:00,
2013-02-11 08:29:00,39.7,37.8,30.01,North,360,5.0,5.0,93,0.00,,,0.23,Wunderground v.1.15,2013-02-11 13:29:00,
2013-02-11 08:33:00,39.8,38.2,30.00,North,360,5.0,5.0,94,0.00,,,0.23,Wunderground v.1.15,2013-02-11 13:33:00,
2013-02-11 08:35:00,39.8,37.9,30.00,North,360,5.0,7.0,93,0.00,,,0.23,Wunderground v.1.15,2013-02-11 13:35:00,
2013-02-11 08:39:00,39.8,37.9,30.00,North,360,6.0,9.0,93,0.00,,,0.23,Wunderground v.1.15,2013-02-11 13:39:00,
2013-02-11 08:43:00,39.9,38.0,30.00,North,360,7.0,11.0,93,0.00,,,0.23,Wunderground v.1.15,2013-02-11 13:43:00,
2013-02-11 08:45:00,40.0,38.1,30.00,North,360,8.0,12.0,93,0.00,,,0.23,Wunderground v.1.15,2013-02-11 13:45:00,
2013-02-11 08:47:00,40.0,38.1,30.00,North,360,9.0,12.0,93,0.00,,,0.23,Wunderground v.1.15,2013-02-11 13:47:00,
2013-02-11 08:49:00,40.0,38.1,30.00,North,360,10.0,13.0,93,0.00,,,0.23,Wunderground v.1.15,2013-02-11 13:49:00,
2013-02-11 08:53:00,40.1,38.5,30.00,North,360,11.0,13.0,94,0.00,,,0.23,Wunderground v.1.15,2013-02-11 13:53:00,
2013-02-11 08:55:00,40.1,38.5,30.00,North,360,10.0,13.0,94,0.00,,,0.23,Wunderground v.1.15,2013-02-11 13:55:00,
2013-02-11 08:57:00,40.2,38.6,30.00,North,360,9.0,13.0,94,0.00,,,0.23,Wunderground v.1.15,2013-02-11 13:57:00,
2013-02-11 08:59:00,40.2,38.6,30.00,North,360,8.0,8.0,94,0.00,,,0.23,Wunderground v.1.15,2013-02-11 13:59:00,
2013-02-11 09:01:00,40.3,38.7,30.01,North,360,7.0,8.0,94,0.00,,,0.23,Wunderground v.1.15,2013-02-11 14:01:00,
2013-02-11 09:03:00,40.4,38.8,30.01,North,360,7.0,8.0,94,0.00,,,0.23,Wunderground v.1.15,2013-02-11 14:03:00,
2013-02-11 09:05:00,40.4,38.8,30.01,North,360,6.0,8.0,94,0.00,,,0.23,Wunderground v.1.15,2013-02-11 14:05:00,
2013-02-11 09:11:00,40.7,39.1,30.00,North,360,5.0,5.0,94,0.00,,,0.23,Wunderground v.1.15,2013-02-11 14:11:00,
2013-02-11 09:15:00,40.8,39.2,30.01,North,360,4.0,7.0,94,0.00,,,0.23,Wunderground v.1.15,2013-02-11 14:15:00,
2013-02-11 09:19:00,40.9,39.3,30.00,North,360,5.0,5.0,94,0.00,,,0.23,Wunderground v.1.15,2013-02-11 14:19:00,
2013-02-11 09:23:00,41.0,40.7,30.00,North,360,5.0,6.0,99,0.00,,,0.23,Wunderground v.1.15,2013-02-11 14:23:00,
2013-02-11 09:25:00,41.1,39.5,30.00,North,360,6.0,6.0,94,0.00,,,0.23,Wunderground v.1.15,2013-02-11 14:25:00,
2013-02-11 09:29:00,41.2,39.6,30.00,North,360,6.0,6.0,94,0.00,,,0.23,Wunderground v.1.15,2013-02-11 14:29:00,
2013-02-11 09:31:00,41.2,39.6,30.00,North,360,6.0,6.0,94,0.00,,,0.23,Wunderground v.1.15,2013-02-11 14:31:00,
2013-02-11 09:33:00,41.3,39.7,30.00,North,360,6.0,6.0,94,0.00,,,0.23,Wunderground v.1.15,2013-02-11 14:33:00,
2013-02-11 09:35:00,41.3,39.7,30.00,North,360,6.0,6.0,94,0.00,,,0.23,Wunderground v.1.15,2013-02-11 14:35:00,
2013-02-11 09:39:00,41.4,39.8,29.99,North,360,5.0,5.0,94,0.00,,,0.23,Wunderground v.1.15,2013-02-11 14:39:00,
2013-02-11 09:41:00,41.5,39.9,29.99,North,360,5.0,9.0,94,0.00,,,0.23,Wunderground v.1.15,2013-02-11 14:41:00,
2013-02-11 09:45:00,41.6,40.0,29.99,North,360,4.0,9.0,94,0.00,,,0.23,Wunderground v.1.15,2013-02-11 14:45:00,
2013-02-11 09:49:00,41.6,40.0,29.99,North,360,6.0,6.0,94,0.00,,,0.23,Wunderground v.1.15,2013-02-11 14:49:00,
2013-02-11 09:53:00,41.6,40.0,29.99,North,360,8.0,8.0,94,0.00,,,0.23,Wunderground v.1.15,2013-02-11 14:53:00,
2013-02-11 09:55:00,41.5,39.9,29.99,North,360,8.0,12.0,94,0.00,,,0.23,Wunderground v.1.15,2013-02-11 14:55:00,
2013-02-11 09:57:00,41.5,39.9,29.98,North,360,8.0,12.0,94,0.00,,,0.23,Wunderground v.1.15,2013-02-11 14:57:00,
2013-02-11 09:59:00,41.6,40.0,29.98,North,360,7.0,7.0,94,0.00,,,0.23,Wunderground v.1.15,2013-02-11 14:59:00,
2013-02-11 10:03:00,41.6,40.0,29.98,North,360,7.0,8.0,94,0.00,,,0.23,Wunderground v.1.15,2013-02-11 15:03:00,
2013-02-11 10:05:00,41.7,40.1,29.98,North,360,7.0,9.0,94,0.00,,,0.23,Wunderground v.1.15,2013-02-11 15:05:00,
2013-02-11 10:09:00,41.8,40.2,29.97,North,360,7.0,9.0,94,0.00,,,0.23,Wunderground v.1.15,2013-02-11 15:09:00,
2013-02-11 10:13:00,41.9,40.3,29.97,North,360,6.0,9.0,94,0.00,,,0.23,Wunderground v.1.15,2013-02-11 15:13:00,
2013-02-11 10:15:00,41.9,40.3,29.97,North,360,6.0,9.0,94,0.00,,,0.23,Wunderground v.1.15,2013-02-11 15:15:00,
2013-02-11 10:17:00,41.9,40.3,29.97,North,360,6.0,9.0,94,0.00,,,0.23,Wunderground v.1.15,2013-02-11 15:17:00,
2013-02-11 10:19:00,42.0,40.4,29.97,North,360,6.0,6.0,94,0.00,,,0.23,Wunderground v.1.15,2013-02-11 15:19:00,
2013-02-11 10:21:00,42.1,40.5,29.96,North,360,6.0,6.0,94,0.00,,,0.23,Wunderground v.1.15,2013-02-11 15:21:00,
2013-02-11 10:25:00,42.1,40.5,29.96,North,360,6.0,8.0,94,0.00,,,0.23,Wunderground v.1.15,2013-02-11 15:25:00,
2013-02-11 10:27:00,42.0,40.4,29.97,North,360,5.0,8.0,94,0.00,,,0.23,Wunderground v.1.15,2013-02-11 15:27:00,
2013-02-11 10:29:00,42.1,40.5,29.97,North,360,6.0,6.0,94,0.00,,,0.23,Wunderground v.1.15,2013-02-11 15:29:00,
2013-02-11 10:31:00,42.1,40.5,29.97,North,360,5.0,6.0,94,0.00,,,0.23,Wunderground v.1.15,2013-02-11 15:31:00,
2013-02-11 10:33:00,42.1,40.5,29.97,North,360,5.0,6.0,94,0.00,,,0.23,Wunderground v.1.15,2013-02-11 15:33:00,
2013-02-11 10:35:00,42.2,40.6,29.97,North,360,5.0,6.0,94,0.00,,,0.23,Wunderground v.1.15,2013-02-11 15:35:00,
2013-02-11 10:39:00,42.3,40.7,29.97,North,360,4.0,5.0,94,0.00,,,0.23,Wunderground v.1.15,2013-02-11 15:39:00,
2013-02-11 10:41:00,42.3,40.7,29.97,North,360,4.0,5.0,94,0.00,,,0.23,Wunderground v.1.15,2013-02-11 15:41:00,
2013-02-11 10:47:00,42.2,40.6,29.97,North,360,6.0,6.0,94,0.00,,,0.23,Wunderground v.1.15,2013-02-11 15:47:00,
2013-02-11 10:49:00,42.2,40.6,29.96,North,360,5.0,5.0,94,0.00,,,0.23,Wunderground v.1.15,2013-02-11 15:49:00,
2013-02-11 10:53:00,42.3,40.7,29.95,North,360,6.0,10.0,94,0.00,,,0.23,Wunderground v.1.15,2013-02-11 15:53:00,
2013-02-11 10:55:00,42.3,40.7,29.95,North,360,6.0,10.0,94,0.00,,,0.23,Wunderground v.1.15,2013-02-11 15:55:00,
2013-02-11 10:57:00,42.4,41.1,29.95,North,360,6.0,10.0,95,0.00,,,0.23,Wunderground v.1.15,2013-02-11 15:57:00,
2013-02-11 10:59:00,42.5,41.2,29.95,North,360,7.0,7.0,95,0.00,,,0.23,Wunderground v.1.15,2013-02-11 15:59:00,
2013-02-11 11:05:00,42.7,41.4,29.95,North,360,6.0,7.0,95,0.00,,,0.23,Wunderground v.1.15,2013-02-11 16:05:00,
2013-02-11 11:07:00,42.7,41.4,29.94,North,360,6.0,12.0,95,0.00,,,0.23,Wunderground v.1.15,2013-02-11 16:07:00,
2013-02-11 11:11:00,42.8,41.5,29.94,North,360,6.0,6.0,95,0.00,,,0.23,Wunderground v.1.15,2013-02-11 16:11:00,
2013-02-11 11:13:00,42.9,41.6,29.94,North,360,7.0,9.0,95,0.00,,,0.23,Wunderground v.1.15,2013-02-11 16:13:00,
2013-02-11 11:15:00,42.9,41.6,29.94,North,360,7.0,10.0,95,0.00,,,0.23,Wunderground v.1.15,2013-02-11 16:15:00,
2013-02-11 11:17:00,43.0,41.7,29.93,North,360,7.0,10.0,95,0.00,,,0.23,Wunderground v.1.15,2013-02-11 16:17:00,
2013-02-11 11:19:00,43.0,41.7,29.93,North,360,7.0,7.0,95,0.00,,,0.23,Wunderground v.1.15,2013-02-11 16:19:00,
2013-02-11 11:21:00,43.1,41.8,29.93,North,360,8.0,8.0,95,0.00,,,0.23,Wunderground v.1.15,2013-02-11 16:21:00,
2013-02-11 11:25:00,43.2,41.9,29.93,North,360,6.0,8.0,95,0.00,,,0.23,Wunderground v.1.15,2013-02-11 16:25:00,
2013-02-11 11:27:00,43.3,42.0,29.93,North,360,6.0,9.0,95,0.00,,,0.23,Wunderground v.1.15,2013-02-11 16:27:00,
2013-02-11 11:31:00,43.4,42.1,29.92,North,360,6.0,11.0,95,0.00,,,0.23,Wunderground v.1.15,2013-02-11 16:31:00,
2013-02-11 11:33:00,43.5,42.2,29.92,North,360,6.0,11.0,95,0.00,,,0.23,Wunderground v.1.15,2013-02-11 16:33:00,
2013-02-11 11:35:00,43.5,42.2,29.92,North,360,7.0,11.0,95,0.00,,,0.23,Wunderground v.1.15,2013-02-11 16:35:00,
2013-02-11 11:37:00,43.6,42.3,29.92,North,360,8.0,11.0,95,0.00,,,0.23,Wunderground v.1.15,2013-02-11 16:37:00,
2013-02-11 11:41:00,43.7,42.4,29.92,North,360,7.0,8.0,95,0.00,,,0.23,Wunderground v.1.15,2013-02-11 16:41:00,
2013-02-11 11:43:00,43.8,42.5,29.92,North,360,7.0,8.0,95,0.00,,,0.23,Wunderground v.1.15,2013-02-11 16:43:00,
2013-02-11 11:47:00,44.0,42.7,29.91,North,360,5.0,8.0,95,0.00,,,0.23,Wunderground v.1.15,2013-02-11 16:47:00,
2013-02-11 11:51:00,44.1,42.8,29.90,North,360,6.0,9.0,95,0.00,,,0.23,Wunderground v.1.15,2013-02-11 16:51:00,
2013-02-11 11:53:00,44.1,42.8,29.90,North,360,6.0,9.0,95,0.00,,,0.23,Wunderground v.1.15,2013-02-11 16:53:00,
2013-02-11 11:55:00,44.2,42.9,29.90,North,360,6.0,11.0,95,0.00,,,0.23,Wunderground v.1.15,2013-02-11 16:55:00,
2013-02-11 11:57:00,44.3,43.0,29.90,North,360,7.0,11.0,95,0.00,,,0.23,Wunderground v.1.15,2013-02-11 16:57:00,
2013-02-11 12:03:00,44.5,43.2,29.90,North,360,6.0,9.0,95,0.00,,,0.23,Wunderground v.1.15,2013-02-11 17:03:00,
2013-02-11 12:05:00,44.6,43.3,29.90,North,360,6.0,9.0,95,0.00,,,0.23,Wunderground v.1.15,2013-02-11 17:05:00,
2013-02-11 12:07:00,44.6,43.3,29.90,North,360,6.0,9.0,95,0.00,,,0.23,Wunderground v.1.15,2013-02-11 17:07:00,
2013-02-11 12:11:00,44.8,43.5,29.90,North,360,5.0,6.0,95,0.00,,,0.23,Wunderground v.1.15,2013-02-11 17:11:00,
2013-02-11 12:13:00,44.9,43.6,29.89,North,360,6.0,6.0,95,0.00,,,0.23,Wunderground v.1.15,2013-02-11 17:13:00,
2013-02-11 12:17:00,44.9,43.6,29.89,North,360,7.0,12.0,95,0.00,,,0.23,Wunderground v.1.15,2013-02-11 17:17:00,
2013-02-11 12:19:00,44.9,43.6,29.88,North,360,7.0,7.0,95,0.00,,,0.23,Wunderground v.1.15,2013-02-11 17:19:00,
2013-02-11 12:21:00,45.0,43.7,29.88,North,360,7.0,10.0,95,0.00,,,0.23,Wunderground v.1.15,2013-02-11 17:21:00,
2013-02-11 12:23:00,45.0,43.7,29.88,North,360,8.0,10.0,95,0.00,,,0.23,Wunderground v.1.15,2013-02-11 17:23:00,
2013-02-11 12:27:00,45.1,43.8,29.87,North,360,7.0,10.0,95,0.00,,,0.23,Wunderground v.1.15,2013-02-11 17:27:00,
2013-02-11 12:31:00,45.2,43.9,29.87,North,360,7.0,10.0,95,0.00,,,0.23,Wunderground v.1.15,2013-02-11 17:31:00,
2013-02-11 12:33:00,45.3,44.0,29.86,North,360,7.0,10.0,95,0.00,,,0.23,Wunderground v.1.15,2013-02-11 17:33:00,
2013-02-11 12:37:00,45.3,44.0,29.86,North,360,7.0,10.0,95,0.00,,,0.23,Wunderground v.1.15,2013-02-11 17:37:00,
2013-02-11 12:39:00,45.4,44.1,29.86,North,360,7.0,7.0,95,0.00,,,0.23,Wunderground v.1.15,2013-02-11 17:39:00,
2013-02-11 12:43:00,45.4,44.1,29.86,North,360,7.0,10.0,95,0.00,,,0.23,Wunderground v.1.15,2013-02-11 17:43:00,
2013-02-11 12:45:00,45.5,44.2,29.86,North,360,7.0,10.0,95,0.00,,,0.23,Wunderground v.1.15,2013-02-11 17:45:00,
2013-02-11 12:49:00,45.6,44.3,29.85,North,360,7.0,7.0,95,0.00,,,0.23,Wunderground v.1.15,2013-02-11 17:49:00,
2013-02-11 12:51:00,45.6,44.3,29.85,North,360,8.0,9.0,95,0.00,,,0.23,Wunderground v.1.15,2013-02-11 17:51:00,
2013-02-11 12:57:00,45.7,44.4,29.85,North,360,8.0,11.0,95,0.00,,,0.23,Wunderground v.1.15,2013-02-11 17:57:00,
2013-02-11 12:59:00,45.8,44.4,29.85,North,360,8.0,11.0,95,0.00,,,0.23,Wunderground v.1.15,2013-02-11 17:59:00,
2013-02-11 13:01:00,45.8,44.4,29.84,North,360,8.0,11.0,95,0.00,,,0.23,Wunderground v.1.15,2013-02-11 18:01:00,
2013-02-11 13:03:00,45.9,44.5,29.85,North,360,8.0,11.0,95,0.00,,,0.23,Wunderground v.1.15,2013-02-11 18:03:00,
2013-02-11 13:05:00,45.9,44.5,29.85,North,360,7.0,11.0,95,0.00,,,0.23,Wunderground v.1.15,2013-02-11 18:05:00,
2013-02-11 13:07:00,46.0,44.6,29.84,North,360,7.0,11.0,95,0.00,,,0.23,Wunderground v.1.15,2013-02-11 18:07:00,
2013-02-11 13:09:00,46.0,44.6,29.84,North,360,7.0,7.0,95,0.00,,,0.23,Wunderground v.1.15,2013-02-11 18:09:00,
2013-02-11 13:13:00,46.1,44.7,29.84,North,360,6.0,7.0,95,0.00,,,0.23,Wunderground v.1.15,2013-02-11 18:13:00,
2013-02-11 13:15:00,46.2,44.8,29.84,North,360,6.0,7.0,95,0.00,,,0.23,Wunderground v.1.15,2013-02-11 18:15:00,
2013-02-11 13:19:00,46.3,44.9,29.84,North,360,6.0,6.0,95,0.00,,,0.23,Wunderground v.1.15,2013-02-11 18:19:00,
2013-02-11 13:21:00,46.3,44.9,29.84,North,360,7.0,8.0,95,0.00,,,0.23,Wunderground v.1.15,2013-02-11 18:21:00,
2013-02-11 13:27:00,46.5,45.1,29.85,North,360,6.0,9.0,95,0.00,,,0.23,Wunderground v.1.15,2013-02-11 18:27:00,
2013-02-11 13:29:00,46.5,45.1,29.85,North,360,7.0,10.0,95,0.00,,,0.23,Wunderground v.1.15,2013-02-11 18:29:00,
2013-02-11 13:31:00,46.5,45.1,29.84,North,360,6.0,10.0,95,0.00,,,0.23,Wunderground v.1.15,2013-02-11 18:31:00,
2013-02-11 13:35:00,46.7,45.3,29.84,North,360,6.0,10.0,95,0.00,,,0.23,Wunderground v.1.15,2013-02-11 18:35:00,
2013-02-11 13:37:00,46.7,45.3,29.84,North,360,6.0,10.0,95,0.00,,,0.23,Wunderground v.1.15,2013-02-11 18:37:00,
2013-02-11 13:39:00,46.8,45.4,29.84,North,360,6.0,7.0,95,0.00,,,0.23,Wunderground v.1.15,2013-02-11 18:39:00,
2013-02-11 13:41:00,46.8,45.4,29.83,North,360,7.0,9.0,95,0.00,,,0.23,Wunderground v.1.15,2013-02-11 18:41:00,
2013-02-11 13:45:00,46.9,45.5,29.83,North,360,6.0,9.0,95,0.00,,,0.23,Wunderground v.1.15,2013-02-11 18:45:00,
2013-02-11 13:47:00,47.0,45.6,29.82,North,360,6.0,9.0,95,0.00,,,0.23,Wunderground v.1.15,2013-02-11 18:47:00,
2013-02-11 13:51:00,47.1,45.7,29.81,North,360,5.0,6.0,95,0.00,,,0.23,Wunderground v.1.15,2013-02-11 18:51:00,
2013-02-11 13:53:00,47.2,45.8,29.81,North,360,5.0,6.0,95,0.00,,,0.23,Wunderground v.1.15,2013-02-11 18:53:00,
2013-02-11 13:59:00,47.4,46.0,29.81,North,360,6.0,7.0,95,0.00,,,0.23,Wunderground v.1.15,2013-02-11 18:59:00,
2013-02-11 14:01:00,47.4,46.0,29.81,North,360,6.0,7.0,95,0.00,,,0.23,Wunderground v.1.15,2013-02-11 19:01:00,
2013-02-11 14:03:00,47.5,46.1,29.81,North,360,8.0,8.0,95,0.00,,,0.23,Wunderground v.1.15,2013-02-11 19:03:00,
2013-02-11 14:07:00,47.6,46.2,29.81,North,360,8.0,15.0,95,0.00,,,0.23,Wunderground v.1.15,2013-02-11 19:07:00,
2013-02-11 14:09:00,47.7,46.3,29.80,North,360,8.0,8.0,95,0.00,,,0.23,Wunderground v.1.15,2013-02-11 19:09:00,
2013-02-11 14:13:00,47.9,46.8,29.80,North,360,7.0,8.0,96,0.00,,,0.23,Wunderground v.1.15,2013-02-11 19:13:00,
2013-02-11 14:15:00,47.9,46.8,29.80,North,360,7.0,8.0,96,0.00,,,0.23,Wunderground v.1.15,2013-02-11 19:15:00,
2013-02-11 14:17:00,48.0,46.6,29.80,North,360,6.0,8.0,95,0.00,,,0.23,Wunderground v.1.15,2013-02-11 19:17:00,
2013-02-11 14:19:00,48.1,46.7,29.80,North,360,5.0,5.0,95,0.00,,,0.23,Wunderground v.1.15,2013-02-11 19:19:00,
2013-02-11 14:21:00,48.2,46.8,29.79,North,360,5.0,5.0,95,0.00,,,0.23,Wunderground v.1.15,2013-02-11 19:21:00,
2013-02-11 14:23:00,48.3,46.9,29.79,North,360,5.0,12.0,95,0.00,,,0.23,Wunderground v.1.15,2013-02-11 19:23:00,
2013-02-11 14:25:00,48.3,46.9,29.79,North,360,6.0,12.0,95,0.00,,,0.23,Wunderground v.1.15,2013-02-11 19:25:00,
2013-02-11 14:27:00,48.4,47.3,29.78,North,360,6.0,12.0,96,0.00,,,0.23,Wunderground v.1.15,2013-02-11 19:27:00,
2013-02-11 14:29:00,48.5,47.1,29.78,North,360,6.0,6.0,95,0.00,,,0.23,Wunderground v.1.15,2013-02-11 19:29:00,
2013-02-11 14:33:00,48.7,47.3,29.78,North,360,6.0,7.0,95,0.00,,,0.23,Wunderground v.1.15,2013-02-11 19:33:00,
2013-02-11 14:35:00,48.8,47.4,29.78,North,360,6.0,7.0,95,0.00,,,0.23,Wunderground v.1.15,2013-02-11 19:35:00,
2013-02-11 14:39:00,49.0,47.9,29.77,North,360,5.0,5.0,96,0.00,,,0.23,Wunderground v.1.15,2013-02-11 19:39:00,
2013-02-11 14:41:00,49.1,47.7,29.78,North,360,4.0,5.0,95,0.00,,,0.23,Wunderground v.1.15,2013-02-11 19:41:00,
2013-02-11 14:43:00,49.2,47.8,29.77,North,360,5.0,6.0,95,0.00,,,0.23,Wunderground v.1.15,2013-02-11 19:43:00,
2013-02-11 14:45:00,49.3,47.9,29.77,North,360,5.0,6.0,95,0.00,,,0.23,Wunderground v.1.15,2013-02-11 19:45:00,
2013-02-11 14:51:00,49.6,48.2,29.77,North,360,5.0,14.0,95,0.00,,,0.23,Wunderground v.1.15,2013-02-11 19:51:00,
2013-02-11 14:53:00,49.7,48.3,29.76,North,360,7.0,14.0,95,0.00,,,0.23,Wunderground v.1.15,2013-02-11 19:53:00,
2013-02-11 14:55:00,49.8,48.4,29.76,North,360,7.0,14.0,95,0.00,,,0.23,Wunderground v.1.15,2013-02-11 19:55:00,
2013-02-11 14:59:00,50.0,48.6,29.76,North,360,10.0,10.0,95,0.00,,,0.23,Wunderground v.1.15,2013-02-11 19:59:00,
2013-02-11 15:01:00,50.1,48.7,29.76,North,360,10.0,11.0,95,0.00,,,0.23,Wunderground v.1.15,2013-02-11 20:01:00,
2013-02-11 15:03:00,50.2,48.8,29.76,North,360,9.0,11.0,95,0.00,,,0.23,Wunderground v.1.15,2013-02-11 20:03:00,
2013-02-11 15:09:00,50.5,49.1,29.76,North,360,7.0,10.0,95,0.00,,,0.23,Wunderground v.1.15,2013-02-11 20:09:00,
2013-02-11 15:11:00,50.6,49.2,29.76,North,360,8.0,10.0,95,0.00,,,0.23,Wunderground v.1.15,2013-02-11 20:11:00,
2013-02-11 15:13:00,50.7,49.0,29.76,North,360,8.0,10.0,94,0.00,,,0.23,Wunderground v.1.15,2013-02-11 20:13:00,
2013-02-11 15:17:00,50.9,49.2,29.77,North,360,7.0,11.0,94,0.00,,,0.23,Wunderground v.1.15,2013-02-11 20:17:00,
2013-02-11 15:23:00,51.3,49.6,29.77,North,360,8.0,8.0,94,0.00,,,0.23,Wunderground v.1.15,2013-02-11 20:23:00,
2013-02-11 15:27:00,51.4,49.7,29.77,North,360,8.0,11.0,94,0.00,,,0.23,Wunderground v.1.15,2013-02-11 20:27:00,
2013-02-11 15:29:00,51.6,49.9,29.77,North,360,8.0,8.0,94,0.00,,,0.23,Wunderground v.1.15,2013-02-11 20:29:00,
2013-02-11 15:33:00,51.8,49.8,29.76,North,360,7.0,9.0,93,0.00,,,0.23,Wunderground v.1.15,2013-02-11 20:33:00,
2013-02-11 15:35:00,51.8,49.8,29.77,North,360,7.0,12.0,93,0.00,,,0.23,Wunderground v.1.15,2013-02-11 20:35:00,
2013-02-11 15:41:00,52.1,50.1,29.76,North,360,7.0,8.0,93,0.00,,,0.23,Wunderground v.1.15,2013-02-11 20:41:00,
2013-02-11 15:45:00,52.2,49.9,29.76,North,360,7.0,11.0,92,0.00,,,0.23,Wunderground v.1.15,2013-02-11 20:45:00,
2013-02-11 15:47:00,52.2,49.9,29.76,North,360,6.0,11.0,92,0.00,,,0.23,Wunderground v.1.15,2013-02-11 20:47:00,
2013-02-11 15:49:00,52.2,49.9,29.76,North,360,6.0,6.0,92,0.00,,,0.23,Wunderground v.1.15,2013-02-11 20:49:00,
2013-02-11 15:51:00,52.3,50.0,29.76,North,360,7.0,10.0,92,0.00,,,0.23,Wunderground v.1.15,2013-02-11 20:51:00,
2013-02-11 15:53:00,52.3,50.0,29.76,North,360,7.0,10.0,92,0.00,,,0.23,Wunderground v.1.15,2013-02-11 20:53:00,
2013-02-11 15:55:00,52.3,50.0,29.76,North,360,8.0,11.0,92,0.00,,,0.23,Wunderground v.1.15,2013-02-11 20:55:00,
2013-02-11 15:57:00,52.4,49.8,29.76,North,360,8.0,11.0,91,0.00,,,0.23,Wunderground v.1.15,2013-02-11 20:57:00,
2013-02-11 15:59:00,52.4,49.8,29.76,North,360,9.0,10.0,91,0.00,,,0.23,Wunderground v.1.15,2013-02-11 20:59:00,
2013-02-11 16:01:00,52.4,49.8,29.76,North,360,9.0,10.0,91,0.00,,,0.23,Wunderground v.1.15,2013-02-11 21:01:00,
2013-02-11 16:03:00,52.4,49.8,29.76,North,360,9.0,10.0,91,0.00,,,0.23,Wunderground v.1.15,2013-02-11 21:03:00,
2013-02-11 16:05:00,52.4,49.8,29.76,North,360,9.0,10.0,91,0.00,,,0.23,Wunderground v.1.15,2013-02-11 21:05:00,
2013-02-11 16:09:00,52.4,49.8,29.76,North,360,9.0,9.0,91,0.00,,,0.23,Wunderground v.1.15,2013-02-11 21:09:00,
2013-02-11 16:11:00,52.4,49.8,29.76,North,360,9.0,12.0,91,0.00,,,0.23,Wunderground v.1.15,2013-02-11 21:11:00,
2013-02-11 16:15:00,52.4,49.8,29.76,North,360,10.0,15.0,91,0.00,,,0.23,Wunderground v.1.15,2013-02-11 21:15:00,
2013-02-11 16:17:00,52.4,49.8,29.76,North,360,10.0,15.0,91,0.00,,,0.23,Wunderground v.1.15,2013-02-11 21:17:00,
2013-02-11 16:21:00,52.5,49.9,29.75,North,360,9.0,10.0,91,0.00,,,0.23,Wunderground v.1.15,2013-02-11 21:21:00,
2013-02-11 16:23:00,52.5,49.9,29.75,North,360,8.0,10.0,91,0.00,,,0.23,Wunderground v.1.15,2013-02-11 21:23:00,
2013-02-11 16:27:00,52.4,49.8,29.75,North,360,9.0,13.0,91,0.00,,,0.23,Wunderground v.1.15,2013-02-11 21:27:00,
2013-02-11 16:33:00,52.4,49.8,29.75,North,360,10.0,13.0,91,0.00,,,0.23,Wunderground v.1.15,2013-02-11 21:33:00,
2013-02-11 16:35:00,52.5,49.9,29.75,North,360,10.0,13.0,91,0.00,,,0.23,Wunderground v.1.15,2013-02-11 21:35:00,
2013-02-11 16:37:00,52.5,49.9,29.75,North,360,10.0,13.0,91,0.00,,,0.23,Wunderground v.1.15,2013-02-11 21:37:00,
2013-02-11 16:39:00,52.5,49.9,29.74,North,360,9.0,11.0,91,0.00,,,0.23,Wunderground v.1.15,2013-02-11 21:39:00,
2013-02-11 16:43:00,52.5,49.7,29.74,North,360,10.0,11.0,90,0.00,,,0.23,Wunderground v.1.15,2013-02-11 21:43:00,
2013-02-11 16:45:00,52.6,49.8,29.75,North,360,10.0,18.0,90,0.00,,,0.23,Wunderground v.1.15,2013-02-11 21:45:00,
2013-02-11 16:47:00,52.5,49.7,29.74,North,360,9.0,18.0,90,0.00,,,0.23,Wunderground v.1.15,2013-02-11 21:47:00,
2013-02-11 16:49:00,52.6,49.8,29.74,North,360,9.0,9.0,90,0.00,,,0.23,Wunderground v.1.15,2013-02-11 21:49:00,
2013-02-11 16:51:00,52.6,49.8,29.74,North,360,9.0,9.0,90,0.00,,,0.23,Wunderground v.1.15,2013-02-11 21:51:00,
2013-02-11 16:55:00,52.6,49.8,29.74,North,360,9.0,12.0,90,0.00,,,0.23,Wunderground v.1.15,2013-02-11 21:55:00,
2013-02-11 16:57:00,52.6,49.8,29.74,North,360,9.0,13.0,90,0.00,,,0.23,Wunderground v.1.15,2013-02-11 21:57:00,
2013-02-11 17:01:00,52.7,49.8,29.74,North,360,10.0,14.0,90,0.00,,,0.23,Wunderground v.1.15,2013-02-11 22:01:00,
2013-02-11 17:03:00,52.7,49.8,29.73,North,360,10.0,14.0,90,0.00,,,0.23,Wunderground v.1.15,2013-02-11 22:03:00,
2013-02-11 17:07:00,52.7,49.8,29.73,North,360,10.0,14.0,90,0.00,,,0.23,Wunderground v.1.15,2013-02-11 22:07:00,
2013-02-11 17:09:00,52.7,49.8,29.73,North,360,9.0,11.0,90,0.00,,,0.23,Wunderground v.1.15,2013-02-11 22:09:00,
2013-02-11 17:13:00,52.8,49.9,29.73,North,360,10.0,13.0,90,0.00,,,0.23,Wunderground v.1.15,2013-02-11 22:13:00,
2013-02-11 17:15:00,52.8,49.9,29.73,North,360,10.0,13.0,90,0.00,,,0.23,Wunderground v.1.15,2013-02-11 22:15:00,
2013-02-11 17:21:00,52.8,49.9,29.73,North,360,10.0,11.0,90,0.00,,,0.23,Wunderground v.1.15,2013-02-11 22:21:00,
2013-02-11 17:23:00,52.8,49.9,29.73,North,360,9.0,15.0,90,0.00,,,0.23,Wunderground v.1.15,2013-02-11 22:23:00,
2013-02-11 17:27:00,52.8,49.9,29.73,North,360,10.0,15.0,90,0.00,,,0.23,Wunderground v.1.15,2013-02-11 22:27:00,
2013-02-11 17:29:00,52.8,49.9,29.73,North,360,10.0,12.0,90,0.00,,,0.23,Wunderground v.1.15,2013-02-11 22:29:00,
2013-02-11 17:31:00,52.8,49.9,29.73,North,360,10.0,12.0,90,0.00,,,0.23,Wunderground v.1.15,2013-02-11 22:31:00,
2013-02-11 17:33:00,52.8,49.9,29.72,North,360,9.0,12.0,90,0.00,,,0.23,Wunderground v.1.15,2013-02-11 22:33:00,
2013-02-11 17:35:00,52.8,49.9,29.72,North,360,9.0,12.0,90,0.00,,,0.23,Wunderground v.1.15,2013-02-11 22:35:00,
2013-02-11 17:37:00,52.8,49.9,29.72,North,360,8.0,12.0,90,0.00,,,0.23,Wunderground v.1.15,2013-02-11 22:37:00,
2013-02-11 17:39:00,52.8,49.9,29.72,North,360,9.0,18.0,90,0.00,,,0.23,Wunderground v.1.15,2013-02-11 22:39:00,
2013-02-11 17:41:00,52.8,49.9,29.72,North,360,8.0,18.0,90,0.00,,,0.23,Wunderground v.1.15,2013-02-11 22:41:00,
2013-02-11 17:43:00,52.8,49.9,29.72,North,360,9.0,18.0,90,0.00,,,0.23,Wunderground v.1.15,2013-02-11 22:43:00,
2013-02-11 17:45:00,52.8,49.9,29.72,North,360,9.0,18.0,90,0.00,,,0.23,Wunderground v.1.15,2013-02-11 22:45:00,
2013-02-11 17:47:00,52.9,50.0,29.73,North,360,9.0,18.0,90,0.00,,,0.23,Wunderground v.1.15,2013-02-11 22:47:00,
2013-02-11 17:53:00,52.9,50.0,29.72,North,360,10.0,10.0,90,0.00,,,0.23,Wunderground v.1.15,2013-02-11 22:53:00,
2013-02-11 17:55:00,52.9,50.0,29.72,North,360,10.0,10.0,90,0.00,,,0.23,Wunderground v.1.15,2013-02-11 22:55:00,
2013-02-11 17:57:00,52.9,50.0,29.72,North,360,9.0,11.0,90,0.00,,,0.23,Wunderground v.1.15,2013-02-11 22:57:00,
2013-02-11 17:59:00,52.9,50.0,29.72,North,360,9.0,9.0,90,0.00,,,0.23,Wunderground v.1.15,2013-02-11 22:59:00,
2013-02-11 18:03:00,52.9,50.0,29.72,North,360,8.0,9.0,90,0.00,,,0.23,Wunderground v.1.15,2013-02-11 23:03:00,
2013-02-11 18:05:00,52.9,50.0,29.72,North,360,7.0,9.0,90,0.00,,,0.23,Wunderground v.1.15,2013-02-11 23:05:00,
2013-02-11 18:07:00,52.9,50.0,29.72,North,360,7.0,9.0,90,0.00,,,0.23,Wunderground v.1.15,2013-02-11 23:07:00,
2013-02-11 18:09:00,52.9,50.0,29.71,North,360,7.0,7.0,90,0.00,,,0.23,Wunderground v.1.15,2013-02-11 23:09:00,
2013-02-11 18:11:00,52.9,50.0,29.71,North,360,8.0,8.0,90,0.00,,,0.23,Wunderground v.1.15,2013-02-11 23:11:00,
2013-02-11 18:15:00,52.9,50.0,29.71,North,360,8.0,8.0,90,0.00,,,0.23,Wunderground v.1.15,2013-02-11 23:15:00,
2013-02-11 18:17:00,52.9,50.0,29.71,North,360,8.0,10.0,90,0.00,,,0.23,Wunderground v.1.15,2013-02-11 23:17:00,
2013-02-11 18:21:00,53.0,50.1,29.71,North,360,8.0,11.0,90,0.00,,,0.23,Wunderground v.1.15,2013-02-11 23:21:00,
2013-02-11 18:23:00,53.0,50.1,29.71,North,360,8.0,11.0,90,0.00,,,0.23,Wunderground v.1.15,2013-02-11 23:23:00,
2013-02-11 18:27:00,53.0,50.1,29.71,North,360,8.0,11.0,90,0.00,,,0.23,Wunderground v.1.15,2013-02-11 23:27:00,
2013-02-11 18:29:00,53.0,50.1,29.71,North,360,8.0,9.0,90,0.00,,,0.23,Wunderground v.1.15,2013-02-11 23:29:00,
2013-02-11 18:35:00,53.1,50.2,29.71,North,360,7.0,9.0,90,0.00,,,0.23,Wunderground v.1.15,2013-02-11 23:35:00,
2013-02-11 18:37:00,53.2,50.3,29.71,North,360,7.0,9.0,90,0.00,,,0.23,Wunderground v.1.15,2013-02-11 23:37:00,
2013-02-11 18:43:00,53.3,50.4,29.71,North,360,8.0,10.0,90,0.00,,,0.23,Wunderground v.1.15,2013-02-11 23:43:00,
2013-02-11 18:45:00,53.3,50.4,29.71,North,360,8.0,10.0,90,0.00,,,0.23,Wunderground v.1.15,2013-02-11 23:45:00,
2013-02-11 18:47:00,53.3,50.4,29.71,North,360,8.0,10.0,90,0.00,,,0.23,Wunderground v.1.15,2013-02-11 23:47:00,
2013-02-11 18:49:00,53.4,50.5,29.70,North,360,8.0,8.0,90,0.00,,,0.23,Wunderground v.1.15,2013-02-11 23:49:00,
2013-02-11 18:51:00,53.4,50.5,29.71,North,360,8.0,8.0,90,0.00,,,0.23,Wunderground v.1.15,2013-02-11 23:51:00,
2013-02-11 18:55:00,53.4,50.5,29.71,North,360,7.0,8.0,90,0.00,,,0.23,Wunderground v.1.15,2013-02-11 23:55:00,
2013-02-11 18:57:00,53.5,50.6,29.71,North,360,7.0,8.0,90,0.00,,,0.23,Wunderground v.1.15,2013-02-11 23:57:00,
2013-02-11 18:59:00,53.5,50.6,29.71,North,360,7.0,8.0,90,0.00,,,0.23,Wunderground v.1.15,2013-02-11 23:59:00,
2013-02-11 19:03:00,53.6,50.7,29.71,North,360,6.0,8.0,90,0.00,,,0.23,Wunderground v.1.15,2013-02-12 00:03:00,
2013-02-11 19:05:00,53.6,50.7,29.71,North,360,7.0,8.0,90,0.00,,,0.23,Wunderground v.1.15,2013-02-12 00:05:00,
2013-02-11 19:11:00,53.6,50.7,29.71,North,360,6.0,6.0,90,0.00,,,0.23,Wunderground v.1.15,2013-02-12 00:11:00,
2013-02-11 19:13:00,53.6,50.4,29.71,North,360,5.0,10.0,89,0.00,,,0.23,Wunderground v.1.15,2013-02-12 00:13:00,
2013-02-11 19:17:00,53.7,50.5,29.71,North,360,6.0,10.0,89,0.00,,,0.23,Wunderground v.1.15,2013-02-12 00:17:00,
2013-02-11 19:19:00,53.7,50.5,29.71,North,360,5.0,6.0,89,0.00,,,0.23,Wunderground v.1.15,2013-02-12 00:19:00,
2013-02-11 19:21:00,53.7,50.8,29.71,North,360,5.0,6.0,90,0.00,,,0.23,Wunderground v.1.15,2013-02-12 00:21:00,
2013-02-11 19:23:00,53.7,50.5,29.71,North,360,6.0,6.0,89,0.00,,,0.23,Wunderground v.1.15,2013-02-12 00:23:00,
2013-02-11 19:25:00,53.8,50.6,29.71,North,360,5.0,6.0,89,0.00,,,0.23,Wunderground v.1.15,2013-02-12 00:25:00,
2013-02-11 19:31:00,53.9,50.7,29.71,North,360,6.0,6.0,89,0.00,,,0.23,Wunderground v.1.15,2013-02-12 00:31:00,
2013-02-11 19:33:00,54.0,50.8,29.71,North,360,6.0,6.0,89,0.00,,,0.23,Wunderground v.1.15,2013-02-12 00:33:00,
2013-02-11 19:37:00,54.1,50.9,29.71,North,360,6.0,6.0,89,0.00,,,0.23,Wunderground v.1.15,2013-02-12 00:37:00,
2013-02-11 19:43:00,54.2,51.0,29.71,North,360,6.0,9.0,89,0.00,,,0.23,Wunderground v.1.15,2013-02-12 00:43:00,
2013-02-11 19:45:00,54.2,51.0,29.71,North,360,6.0,9.0,89,0.00,,,0.23,Wunderground v.1.15,2013-02-12 00:45:00,
2013-02-11 19:49:00,54.3,51.1,29.71,North,360,7.0,7.0,89,0.00,,,0.23,Wunderground v.1.15,2013-02-12 00:49:00,
2013-02-11 19:51:00,54.3,51.1,29.71,North,360,7.0,11.0,89,0.00,,,0.23,Wunderground v.1.15,2013-02-12 00:51:00,
2013-02-11 19:55:00,54.3,50.8,29.71,North,360,7.0,11.0,88,0.00,,,0.23,Wunderground v.1.15,2013-02-12 00:55:00,
2013-02-11 19:57:00,54.3,50.8,29.70,North,360,7.0,11.0,88,0.00,,,0.23,Wunderground v.1.15,2013-02-12 00:57:00,
2013-02-11 19:59:00,54.3,50.8,29.70,North,360,7.0,7.0,88,0.00,,,0.23,Wunderground v.1.15,2013-02-12 00:59:00,
2013-02-11 20:03:00,54.3,50.8,29.71,North,360,7.0,7.0,88,0.00,,,0.23,Wunderground v.1.15,2013-02-12 01:03:00,
2013-02-11 20:05:00,54.3,50.8,29.70,North,360,7.0,9.0,88,0.00,,,0.23,Wunderground v.1.15,2013-02-12 01:05:00,
2013-02-11 20:11:00,54.3,50.8,29.70,North,360,6.0,10.0,88,0.00,,,0.23,Wunderground v.1.15,2013-02-12 01:11:00,
2013-02-11 20:13:00,54.3,50.8,29.71,North,360,6.0,10.0,88,0.00,,,0.23,Wunderground v.1.15,2013-02-12 01:13:00,
2013-02-11 20:15:00,54.3,50.8,29.71,North,360,6.0,10.0,88,0.00,,,0.23,Wunderground v.1.15,2013-02-12 01:15:00,
2013-02-11 20:17:00,54.3,50.8,29.71,North,360,6.0,10.0,88,0.00,,,0.23,Wunderground v.1.15,2013-02-12 01:17:00,
2013-02-11 20:21:00,54.2,50.7,29.71,North,360,6.0,6.0,88,0.00,,,0.23,Wunderground v.1.15,2013-02-12 01:21:00,
2013-02-11 20:23:00,54.2,50.7,29.71,North,360,5.0,6.0,88,0.00,,,0.23,Wunderground v.1.15,2013-02-12 01:23:00,
2013-02-11 20:25:00,54.2,50.7,29.71,North,360,5.0,6.0,88,0.00,,,0.23,Wunderground v.1.15,2013-02-12 01:25:00,
2013-02-11 20:27:00,54.2,50.7,29.71,North,360,5.0,6.0,88,0.00,,,0.23,Wunderground v.1.15,2013-02-12 01:27:00,
2013-02-11 20:29:00,54.2,50.7,29.71,North,360,4.0,4.0,88,0.00,,,0.23,Wunderground v.1.15,2013-02-12 01:29:00,
2013-02-11 20:31:00,54.2,50.7,29.71,North,360,5.0,6.0,88,0.00,,,0.23,Wunderground v.1.15,2013-02-12 01:31:00,
2013-02-11 20:33:00,54.2,50.7,29.71,North,360,4.0,6.0,88,0.00,,,0.23,Wunderground v.1.15,2013-02-12 01:33:00,
2013-02-11 20:35:00,54.2,50.7,29.72,North,360,4.0,6.0,88,0.00,,,0.23,Wunderground v.1.15,2013-02-12 01:35:00,
2013-02-11 20:39:00,54.1,50.6,29.72,North,360,4.0,4.0,88,0.00,,,0.23,Wunderground v.1.15,2013-02-12 01:39:00,
2013-02-11 20:41:00,54.1,50.6,29.73,North,360,3.0,4.0,88,0.00,,,0.23,Wunderground v.1.15,2013-02-12 01:41:00,
2013-02-11 20:43:00,54.1,50.6,29.72,North,360,4.0,7.0,88,0.00,,,0.23,Wunderground v.1.15,2013-02-12 01:43:00,
2013-02-11 20:47:00,54.1,50.6,29.72,North,360,4.0,7.0,88,0.00,,,0.23,Wunderground v.1.15,2013-02-12 01:47:00,
2013-02-11 20:49:00,54.1,50.6,29.72,North,360,3.0,4.0,88,0.00,,,0.23,Wunderground v.1.15,2013-02-12 01:49:00,
2013-02-11 20:51:00,54.1,50.6,29.72,North,360,3.0,4.0,88,0.00,,,0.23,Wunderground v.1.15,2013-02-12 01:51:00,
2013-02-11 20:55:00,54.1,50.6,29.72,North,360,3.0,4.0,88,0.00,,,0.23,Wunderground v.1.15,2013-02-12 01:55:00,
2013-02-11 20:59:00,54.0,50.5,29.72,North,360,3.0,3.0,88,0.00,,,0.23,Wunderground v.1.15,2013-02-12 01:59:00,
2013-02-11 21:03:00,54.0,50.5,29.72,North,360,2.0,3.0,88,0.00,,,0.23,Wunderground v.1.15,2013-02-12 02:03:00,
2013-02-11 21:07:00,53.9,50.1,29.72,North,360,2.0,3.0,87,0.00,,,0.23,Wunderground v.1.15,2013-02-12 02:07:00,
2013-02-11 21:09:00,53.9,50.1,29.72,North,360,2.0,3.0,87,0.00,,,0.23,Wunderground v.1.15,2013-02-12 02:09:00,
2013-02-11 21:11:00,53.9,50.1,29.72,North,360,2.0,3.0,87,0.00,,,0.23,Wunderground v.1.15,2013-02-12 02:11:00,
2013-02-11 21:13:00,53.9,50.4,29.72,North,360,2.0,4.0,88,0.00,,,0.23,Wunderground v.1.15,2013-02-12 02:13:00,
2013-02-11 21:17:00,53.9,50.4,29.73,North,360,3.0,4.0,88,0.00,,,0.23,Wunderground v.1.15,2013-02-12 02:17:00,
2013-02-11 21:23:00,53.9,50.4,29.73,North,360,3.0,9.0,88,0.00,,,0.23,Wunderground v.1.15,2013-02-12 02:23:00,
2013-02-11 21:25:00,53.9,50.4,29.73,North,360,4.0,9.0,88,0.00,,,0.23,Wunderground v.1.15,2013-02-12 02:25:00,
2013-02-11 21:29:00,53.8,50.3,29.73,North,360,3.0,4.0,88,0.00,,,0.23,Wunderground v.1.15,2013-02-12 02:29:00,
2013-02-11 21:31:00,53.8,50.0,29.73,North,360,4.0,6.0,87,0.00,,,0.23,Wunderground v.1.15,2013-02-12 02:31:00,
2013-02-11 21:37:00,53.8,50.3,29.73,North,360,5.0,9.0,88,0.00,,,0.23,Wunderground v.1.15,2013-02-12 02:37:00,
2013-02-11 21:39:00,53.8,50.3,29.73,North,360,6.0,6.0,88,0.00,,,0.23,Wunderground v.1.15,2013-02-12 02:39:00,
2013-02-11 21:43:00,53.7,49.9,29.73,North,360,6.0,6.0,87,0.00,,,0.23,Wunderground v.1.15,2013-02-12 02:43:00,
2013-02-11 21:45:00,53.6,49.8,29.74,North,360,5.0,6.0,87,0.00,,,0.23,Wunderground v.1.15,2013-02-12 02:45:00,
2013-02-11 21:51:00,53.7,50.2,29.74,North,360,4.0,5.0,88,0.00,,,0.23,Wunderground v.1.15,2013-02-12 02:51:00,
2013-02-11 21:53:00,53.6,50.1,29.73,North,360,4.0,5.0,88,0.00,,,0.23,Wunderground v.1.15,2013-02-12 02:53:00,
2013-02-11 21:59:00,53.4,49.6,29.74,North,360,4.0,5.0,87,0.00,,,0.23,Wunderground v.1.15,2013-02-12 02:59:00,
2013-02-11 22:03:00,53.4,49.9,29.74,North,360,4.0,5.0,88,0.00,,,0.23,Wunderground v.1.15,2013-02-12 03:03:00,
2013-02-11 22:05:00,53.4,49.9,29.74,North,360,4.0,5.0,88,0.00,,,0.23,Wunderground v.1.15,2013-02-12 03:05:00,
2013-02-11 22:07:00,53.5,50.0,29.75,North,360,4.0,5.0,88,0.00,,,0.23,Wunderground v.1.15,2013-02-12 03:07:00,
2013-02-11 22:13:00,53.4,49.6,29.75,North,360,5.0,6.0,87,0.00,,,0.23,Wunderground v.1.15,2013-02-12 03:13:00,
2013-02-11 22:17:00,53.3,49.5,29.75,North,360,5.0,6.0,87,0.00,,,0.23,Wunderground v.1.15,2013-02-12 03:17:00,
2013-02-11 22:19:00,53.3,49.5,29.75,North,360,4.0,4.0,87,0.00,,,0.23,Wunderground v.1.15,2013-02-12 03:19:00,
2013-02-11 22:21:00,53.3,49.5,29.75,North,360,3.0,4.0,87,0.00,,,0.23,Wunderground v.1.15,2013-02-12 03:21:00,
2013-02-11 22:23:00,53.3,49.5,29.76,North,360,2.0,4.0,87,0.00,,,0.23,Wunderground v.1.15,2013-02-12 03:23:00,
2013-02-11 22:25:00,53.3,49.5,29.76,North,360,2.0,4.0,87,0.00,,,0.23,Wunderground v.1.15,2013-02-12 03:25:00,
2013-02-11 22:29:00,53.3,49.5,29.76,North,360,2.0,3.0,87,0.00,,,0.23,Wunderground v.1.15,2013-02-12 03:29:00,
2013-02-11 22:31:00,53.5,50.0,29.76,North,360,2.0,3.0,88,0.00,,,0.23,Wunderground v.1.15,2013-02-12 03:31:00,
2013-02-11 22:37:00,53.6,49.8,29.76,North,360,3.0,3.0,87,0.00,,,0.23,Wunderground v.1.15,2013-02-12 03:37:00,
2013-02-11 22:41:00,53.6,49.8,29.76,North,360,3.0,4.0,87,0.00,,,0.23,Wunderground v.1.15,2013-02-12 03:41:00,
2013-02-11 22:43:00,53.5,49.4,29.76,North,360,3.0,5.0,86,0.00,,,0.23,Wunderground v.1.15,2013-02-12 03:43:00,
2013-02-11 22:45:00,53.5,49.4,29.76,North,360,3.0,5.0,86,0.00,,,0.23,Wunderground v.1.15,2013-02-12 03:45:00,
2013-02-11 22:49:00,53.5,49.4,29.76,North,360,3.0,6.0,86,0.00,,,0.23,Wunderground v.1.15,2013-02-12 03:49:00,
2013-02-11 22:51:00,53.5,49.1,29.76,North,360,4.0,6.0,85,0.00,,,0.23,Wunderground v.1.15,2013-02-12 03:51:00,
2013-02-11 22:55:00,53.6,49.2,29.76,North,360,4.0,6.0,85,0.00,,,0.23,Wunderground v.1.15,2013-02-12 03:55:00,
2013-02-11 22:57:00,53.5,49.1,29.76,North,360,4.0,6.0,85,0.00,,,0.23,Wunderground v.1.15,2013-02-12 03:57:00,
2013-02-11 23:01:00,53.6,48.9,29.77,North,360,4.0,5.0,84,0.00,,,0.23,Wunderground v.1.15,2013-02-12 04:01:00,
2013-02-11 23:05:00,53.5,48.8,29.77,North,360,4.0,5.0,84,0.00,,,0.23,Wunderground v.1.15,2013-02-12 04:05:00,
2013-02-11 23:07:00,53.5,48.8,29.77,North,360,4.0,5.0,84,0.00,,,0.23,Wunderground v.1.15,2013-02-12 04:07:00,
2013-02-11 23:11:00,53.4,48.7,29.77,North,360,3.0,3.0,84,0.00,,,0.23,Wunderground v.1.15,2013-02-12 04:11:00,
2013-02-11 23:13:00,53.4,48.7,29.77,North,360,2.0,3.0,84,0.00,,,0.23,Wunderground v.1.15,2013-02-12 04:13:00,
2013-02-11 23:15:00,53.4,48.4,29.77,North,360,2.0,3.0,83,0.00,,,0.23,Wunderground v.1.15,2013-02-12 04:15:00,
2013-02-11 23:17:00,53.4,48.4,29.77,North,360,2.0,3.0,83,0.00,,,0.23,Wunderground v.1.15,2013-02-12 04:17:00,
2013-02-11 23:21:00,53.4,47.0,29.76,North,360,2.0,3.0,79,0.00,,,0.23,Wunderground v.1.15,2013-02-12 04:21:00,
2013-02-11 23:23:00,53.5,46.8,29.77,North,360,3.0,9.0,78,0.00,,,0.23,Wunderground v.1.15,2013-02-12 04:23:00,
2013-02-11 23:27:00,53.7,44.5,29.77,North,360,5.0,9.0,71,0.00,,,0.23,Wunderground v.1.15,2013-02-12 04:27:00,
2013-02-11 23:29:00,53.9,43.2,29.77,North,360,6.0,6.0,67,0.00,,,0.23,Wunderground v.1.15,2013-02-12 04:29:00,
2013-02-11 23:31:00,54.1,41.8,29.77,North,360,7.0,7.0,63,0.00,,,0.23,Wunderground v.1.15,2013-02-12 04:31:00,
2013-02-11 23:35:00,54.3,40.7,29.77,North,360,8.0,9.0,60,0.00,,,0.23,Wunderground v.1.15,2013-02-12 04:35:00,
2013-02-11 23:37:00,54.4,39.5,29.77,North,360,7.0,9.0,57,0.00,,,0.23,Wunderground v.1.15,2013-02-12 04:37:00,
2013-02-11 23:39:00,54.4,39.5,29.77,North,360,7.0,7.0,57,0.00,,,0.23,Wunderground v.1.15,2013-02-12 04:39:00,
2013-02-11 23:43:00,54.6,38.3,29.77,North,360,7.0,10.0,54,0.00,,,0.23,Wunderground v.1.15,2013-02-12 04:43:00,
2013-02-11 23:47:00,54.5,36.7,29.77,North,360,7.0,10.0,51,0.00,,,0.23,Wunderground v.1.15,2013-02-12 04:47:00,
2013-02-11 23:51:00,54.5,37.2,29.79,North,360,7.0,7.0,52,0.00,,,0.23,Wunderground v.1.15,2013-02-12 04:51:00,
2013-02-11 23:53:00,54.4,36.1,29.79,North,360,6.0,7.0,50,0.00,,,0.23,Wunderground v.1.15,2013-02-12 04:53:00,
2013-02-11 23:55:00,54.4,35.6,29.79,North,360,6.0,7.0,49,0.00,,,0.23,Wunderground v.1.15,2013-02-12 04:55:00,
2013-02-11 23:57:00,54.4,35.6,29.79,North,360,5.0,7.0,49,0.00,,,0.23,Wunderground v.1.15,2013-02-12 04:57:00,
2013-02-11 23:59:00,54.4,35.6,29.79,North,360,5.0,6.0,49,0.00,,,0.23,Wunderground v.1.15,2013-02-12 04:59:00,